Flag for Netherlands Weather past 2 weeks in Haarlem, Netherlands

Now
61 °F

Scattered clouds.


Feels Like: 61 °F
Forecast: 56 / 62 °F
Wind: 15 mph from West

Location: Amsterdam Schiphol Airport

Current Time: Sep 3, 2015 at 5:14:27 PM

Latest Report: Sep 3, 2015 at 4:55 PM


Visibility: N/A

Pressure: 29.89 "Hg

Humidity: 55%

Dew point: 45 °F

Location of HaarlemLocation

Historic Weather in Haarlem — Graph

°F

Haarlem temperature yesterday

Maximum temperature yesterday: 66 °F (at 2:55 PM)
Minimum temperature yesterday: 50 °F (at 3:25 AM)
Average temperature yesterday: 58 °F

Past Weeks' High & Low Weather Summary

 TemperatureHumidityPressure
High79 °F (Aug 22, 1:55 PM)100% (Aug 24, 12:25 AM)30.21 "Hg (Aug 24, 12:25 AM)
Low48 °F (Sep 3, 3:25 AM)42% (Aug 22, 2:55 PM)29.45 "Hg (Aug 24, 4:25 PM)
Average64 °F78%29.93 "Hg
* Reported Aug 19 3:25 PM — Sep 3 3:55 PM, Haarlem, Weather by CustomWeather, © 2015

Note: Actual official high and low records may vary slightly from our data, if they occured in-between our weather recording intervals... More about our weather records

Advertising

Haarlem weather history for previous 24 hours

 ConditionsComfort  
Time TempWeatherWind HumidityBarometerVisibility
3:55 PM
Thu, Sep 3
61 °FPassing clouds.14 mph63%29.92 "HgN/A
3:25 PM61 °FPassing clouds.15 mph68%29.92 "HgN/A
2:55 PM59 °FScattered clouds.8 mph82%29.89 "HgN/A
2:25 PM59 °FScattered showers. Scattered clouds.9 mph82%29.92 "HgN/A
1:55 PM57 °FSprinkles. Scattered clouds.6 mph82%29.92 "HgN/A
1:25 PM55 °FSprinkles. Scattered clouds.9 mph82%29.92 "HgN/A
12:55 PM55 °FSprinkles. Scattered clouds.8 mph88%29.92 "HgN/A
12:25 PM55 °FScattered showers. Broken clouds.13 mph77%29.92 "HgN/A
11:55 AM59 °FScattered showers. Scattered clouds.14 mph77%29.92 "HgN/A
11:25 AM59 °FPassing clouds.15 mph77%29.92 "HgN/A
10:55 AM59 °FPassing clouds.14 mph77%29.92 "HgN/A
10:25 AM59 °FPassing clouds.12 mph82%29.92 "HgN/A
9:55 AM55 °FPassing clouds.12 mph88%29.92 "HgN/A
9:25 AM54 °FSprinkles. Passing clouds.13 mph94%29.92 "HgN/A
8:55 AM55 °FSprinkles. Passing clouds.9 mph88%29.92 "HgN/A
8:25 AM55 °FSprinkles. Scattered clouds.6 mph88%29.92 "HgN/A
7:55 AM54 °FSprinkles. Scattered clouds.3 mph94%29.92 "HgN/A
7:25 AM52 °FPassing clouds.8 mph94%29.92 "HgN/A
6:55 AM50 °FPassing clouds.7 mph94%29.92 "HgN/A
6:25 AM50 °FPassing clouds.8 mph94%29.92 "HgN/A
5:55 AM52 °FSprinkles. Passing clouds.9 mph94%29.92 "HgN/A
5:25 AM50 °FScattered showers. Passing clouds.7 mph94%29.95 "HgN/A
4:55 AM50 °FPassing clouds.6 mph88%29.95 "HgN/A
4:25 AM50 °FPassing clouds.5 mph94%29.95 "HgN/A
3:55 AM48 °FPassing clouds.7 mph94%29.95 "HgN/A
3:25 AM48 °FPassing clouds.5 mph94%29.95 "HgN/A
2:55 AM50 °FPassing clouds.2 mph100%29.98 "HgN/A
2:25 AM50 °FPassing clouds.2 mph94%29.98 "HgN/A
1:55 AM52 °FPassing clouds.3 mph94%29.98 "HgN/A
1:25 AM52 °FPassing clouds.3 mph88%29.98 "HgN/A
12:55 AM52 °FPassing clouds.2 mph88%29.98 "HgN/A
12:25 AM52 °FPassing clouds.2 mph88%29.98 "HgN/A
11:55 PM
Wed, Sep 2
54 °FPassing clouds.2 mph82%29.98 "HgN/A
11:25 PM54 °FPassing clouds.2 mph82%29.98 "HgN/A
10:55 PM54 °FPassing clouds.5 mph82%30.01 "HgN/A
10:25 PM54 °FPassing clouds.6 mph82%30.01 "HgN/A
9:55 PM54 °FPassing clouds.3 mph82%30.01 "HgN/A
9:25 PM54 °FPassing clouds.3 mph82%30.01 "HgN/A
8:55 PM55 °FPassing clouds.5 mph77%30.01 "HgN/A
8:25 PM57 °FPassing clouds.7 mph77%29.98 "HgN/A
7:55 PM59 °FPassing clouds.9 mph72%29.98 "HgN/A
7:25 PM59 °FPassing clouds.10 mph68%29.98 "HgN/A
6:55 PM61 °FPassing clouds.13 mph68%29.98 "HgN/A
6:25 PM61 °FPassing clouds.12 mph68%29.98 "HgN/A
5:55 PM63 °FPassing clouds.12 mph64%29.98 "HgN/A
5:25 PM63 °FPassing clouds.15 mph64%29.98 "HgN/A
Weather by CustomWeather, © 2015

See weather overviewHow to use our weather pages